Location: Ash Swamp
(41.5170°N, 74.6157°W)
Time: 02:48:50
(UTC+00:00)

Cosmos 1812 - Pass Details

Date: 14 July 2020
Orbit: 516 x 522 km, 82.5° (Epoch: 14 August)

Event Time Altitude Azimuth Distance (km) Brightness Sun altitude
Rises 04:29:35 0° 358° (N) 2,652 7.6 -26.4°
Reaches altitude 10° 04:31:48 10° 5° (N) 1,758 6.3 -26.4°
Enters shadow 04:34:25 35° 35° (NE) 860 4.1 -26.5°
